Current weather by "City, St" or "zip code"  
 
Advertise Here

Current Conditions: Lewisburg / Greenbrier, WV

Fair


70.0 F

Last Updated on Jul 26 2021, 11:55 pm EDT
Humidity: 90%
Wind Speed: N 0.0 mph
Barometer 30.10 in
Dewpoint: 66.7 F
Visibility: 10.00 mi
Precip: --
Heat Index: NA
Wind Chill: NA
Current conditions at:

Lewisburg / Greenbrier, WV (KLWB)

Lat: 37.86667 Lon: 80.4

Local Radar Image active severe weather and emergency alerts image image weather storm and storm spotter reports image weather observation monitoring service image
Local
Radar
Active
Alerts
Storm Reports Obs
Monitoring

Sign-up For Email & Text Message Weather Alert Notification Services


Advertise Here

Observation History for Lewisburg / Greenbrier, WV


Time Wind
(mph)
Vis
(mi)
Weather Precip (in) Temperature (F) Relative
Humidity
Wind
Chill
(F)
Heat
Index
(F)
Pressure
Air Dwpt altimeter
(in)
sea level
(mb)
Rmks
11:55 pm EDT N 0.0 10.00 Fair -- 70.0 66.7 90% NA NA 30.10 M
10:55 pm EDT N 0.0 10.00 Fair -- 71.0 66.6 86% NA NA 30.10 M
9:55 pm EDT N 0.0 10.00 Fair -- 73.0 67.8 85% NA NA 30.09 M
9:35 pm EDT N 0.0 10.00 Partly Cloudy -- 74.0 67.6 80% NA NA 30.08 M
8:55 pm EDT N 0.0 10.00 Mostly Cloudy -- 78.0 67.3 70% NA NA 30.08 M
7:55 pm EDT N 0.0 10.00 Fair -- 81.0 66.4 61% NA 83 30.05 M
6:51 pm EDT N 4.6 10.00 Fair -- 82.0 66.2 58% NA 84 30.05 M
5:51 pm EDT N 5.8 10.00 Partly Cloudy -- 82.0 66.2 58% NA 84 30.04 M
4:51 pm EDT NW 5.8 10.00 Mostly Cloudy -- 86.0 66.2 52% NA 88 30.04 M
3:51 pm EDT W 9.2 10.00 Partly Cloudy -- 86.0 66.2 52% NA 88 30.04 M
2:50 pm EDT W 9.2 10.00 Partly Cloudy -- 86.0 69.8 59% NA 91 30.04 M
1:51 pm EDT W 5.8 10.00 Partly Cloudy -- 82.0 68.0 62% NA 85 30.06 M
12:51 pm EDT W 4.6 10.00 Mostly Cloudy -- 79.0 73.4 84% NA NA 30.08 M
11:51 am EDT N 0.0 10.00 Mostly Cloudy -- 79.0 69.8 74% NA NA 30.08 M
10:51 am EDT N 0.0 10.00 Overcast -- 77.0 69.8 79% NA NA 30.08 M
9:52 am EDT S 4.6 10.00 Overcast -- 73.0 69.8 89% NA NA 30.09 M
8:35 am EDT N 0.0 0.25 Fog -- 68.0 68.0 100% NA NA 30.09 M
7:55 am EDT N 0.0 0.15 Fog -- 67.0 66.7 100% NA NA 30.08 M
6:55 am EDT NE 3.5 0.15 Fog -- 65.0 65.5 100% NA NA 30.08 M
5:55 am EDT N 0.0 0.75 Fog/Mist -- 65.0 65.1 100% NA NA 30.07 M
4:55 am EDT N 0.0 0.50 Fog -- 65.0 65.3 100% NA NA 30.06 M
4:35 am EDT N 0.0 0.50 Fog -- 65.0 65.1 99% NA NA 30.06 M
3:55 am EDT N 0.0 10.00 Mostly Cloudy -- 67.0 66.2 96% NA NA 30.06 M
2:55 am EDT N 0.0 5.00 Fog/Mist -- 67.0 66.4 98% NA NA 30.06 M

Regional Weather Observation


Beckley, Raleigh County Memorial Airport, WV (KBKW)

Fog/Mist
70.0 F

Virginia Tech Airport, VA (KBCB)

Fog/Mist
68.0 F

Hot Springs / Ingalls, VA (KHSP)

Thunderstorm Heavy Rain
69.0 F

Dublin / New River Valley, VA (KPSK)

Fog
67.0 F

Charleston, Yeager Airport, WV (KCRW)

A Few Clouds
77.0 F

Bluefield, Mercer County Airport, WV (KBLF)

Fog
68.0 F
Advertise Here

Advertise Here